map of LEGT home
LEGT - Airport
Location
City:  Getafe, Madrid, Spain
Name:Getafe AB
ICAO:LEGT

Details
Type:Airport (Aerodrome, Airfield)
Use:Military
Latitude:4017'39"N (40.294139)
Longitude:343'26"W (-3.723832)
Datum:WGS 1984
Elevation:2029 ft (618 m)
Variation:0.41W (WMM2015v2 magnetic declination)
0.15 annual change
Runways:2
Longest:8136 × 197 ft (2480 × 60 m), paved

Time
Time Zone:UTC+1 (DST+2)
Local Time:

Weather
METAR:LEGT 041400Z 10001KT CAVOK 11/M02 Q1028

Related Locations
Nearby:
Farthest:NZDV: 12432 mi / 20007 km
Dannevirke, MWT, NZ

Find:

   beyond  
but within

Other Information
Maps:
NOTAMs:
Links:
Sources:

  
  • flag of Spain
  • flag of Madrid
  

Sectional Chart

Flight Planning
at skyvector.com

Satellite Image

Google Maps Satellite view

 

Copyright © 2004-2019 Karl L. Swartz. All rights reserved.
The Great Circle Mapper name and logo are trademarks of the Great Circle Mapper.
All other trademarks mentioned herein belong to their respective owners.
Please see credits for attibutions and further copyright information.

  Follow gcmap on Facebook Follow gcmap on Twitter GCmap on LinkedIn

hCard Microformat

Geo Microformat